TimeMDT,TemperatureF,Dew PointF,Humidity,Sea Level PressureIn,VisibilityMPH,Wind Direction,Wind SpeedMPH,Gust SpeedMPH,PrecipitationIn,Events,Conditions,WindDirDegrees,DateUTC
12:24 AM,57.2,55.4,94,29.81,10.0,NE,10.4,-,0.00,Rain,Light Rain,50,2013-05-27 06:24:00
12:40 AM,57.2,55.4,94,29.82,8.0,NE,10.4,-,0.02,Rain-Thunderstorm,Rain,50,2013-05-27 06:40:00
12:53 AM,57.9,55.0,90,29.80,9.0,NNE,10.4,-,0.05,Rain-Thunderstorm,Light Thunderstorms and Rain,20,2013-05-27 06:53:00
1:14 AM,57.2,55.4,94,29.84,10.0,NNE,5.8,-,0.02,Rain,Light Rain,30,2013-05-27 07:14:00
1:53 AM,57.9,55.0,90,29.84,9.0,East,3.5,-,0.07,Rain,Light Rain,100,2013-05-27 07:53:00
2:25 AM,57.2,55.4,94,29.85,5.0,East,3.5,-,0.06,Rain,Rain,90,2013-05-27 08:25:00
2:48 AM,57.2,55.4,94,29.82,10.0,East,6.9,-,0.09,Rain,Light Rain,80,2013-05-27 08:48:00
2:53 AM,57.0,55.0,93,29.80,10.0,East,8.1,-,0.09,Rain,Light Rain,80,2013-05-27 08:53:00
3:39 AM,57.2,55.4,94,29.81,10.0,Variable,5.8,17.3,0.01,,Mostly Cloudy,0,2013-05-27 09:39:00
3:53 AM,57.0,54.0,89,29.79,10.0,Calm,Calm,-,0.01,,Partly Cloudy,0,2013-05-27 09:53:00
4:53 AM,53.1,51.1,93,29.80,10.0,Calm,Calm,-,N/A,,Clear,0,2013-05-27 10:53:00
5:53 AM,52.0,50.0,93,29.81,8.0,Calm,Calm,-,N/A,,Clear,0,2013-05-27 11:53:00
6:53 AM,57.0,54.0,89,29.78,10.0,Calm,Calm,-,N/A,,Clear,0,2013-05-27 12:53:00
7:53 AM,59.0,55.0,87,29.78,10.0,South,3.5,-,N/A,,Mostly Cloudy,180,2013-05-27 13:53:00
8:45 AM,60.8,55.4,82,29.81,10.0,Calm,Calm,-,N/A,,Overcast,0,2013-05-27 14:45:00
8:53 AM,61.0,57.0,87,29.80,10.0,WNW,3.5,-,N/A,,Overcast,300,2013-05-27 14:53:00
9:53 AM,64.0,55.0,73,29.78,10.0,Calm,Calm,-,N/A,,Overcast,0,2013-05-27 15:53:00
10:53 AM,64.0,55.0,73,29.78,10.0,Calm,Calm,-,N/A,,Overcast,0,2013-05-27 16:53:00
11:53 AM,66.0,55.9,70,29.76,10.0,SW,4.6,-,N/A,,Partly Cloudy,220,2013-05-27 17:53:00
12:27 PM,66.2,57.2,73,29.77,10.0,WSW,9.2,-,N/A,,Mostly Cloudy,240,2013-05-27 18:27:00
12:41 PM,66.2,55.4,68,29.76,10.0,West,6.9,-,N/A,,Scattered Clouds,270,2013-05-27 18:41:00
12:53 PM,66.0,55.9,70,29.75,10.0,West,8.1,-,N/A,,Partly Cloudy,260,2013-05-27 18:53:00
1:53 PM,66.0,55.0,68,29.74,10.0,Variable,4.6,-,N/A,,Partly Cloudy,0,2013-05-27 19:53:00
2:53 PM,66.0,54.0,65,29.73,10.0,WSW,4.6,-,N/A,,Clear,240,2013-05-27 20:53:00
3:53 PM,66.0,55.0,68,29.70,10.0,SW,3.5,-,N/A,,Clear,220,2013-05-27 21:53:00
4:53 PM,70.0,53.1,55,29.68,10.0,Calm,Calm,-,N/A,,Mostly Cloudy,0,2013-05-27 22:53:00
5:53 PM,68.0,53.1,59,29.68,10.0,South,3.5,-,N/A,,Mostly Cloudy,190,2013-05-27 23:53:00
6:53 PM,69.1,55.0,61,29.67,10.0,SE,4.6,-,N/A,,Partly Cloudy,130,2013-05-28 00:53:00
7:50 PM,64.4,57.2,77,29.66,10.0,East,6.9,-,N/A,Thunderstorm,Mostly Cloudy,90,2013-05-28 01:50:00
7:53 PM,64.9,57.0,75,29.66,10.0,East,6.9,-,N/A,Thunderstorm,Mostly Cloudy,80,2013-05-28 01:53:00
8:33 PM,59.0,53.6,82,29.68,1.8,NNW,10.4,25.3,0.15,Rain-Thunderstorm,Heavy Thunderstorms and Rain,340,2013-05-28 02:33:00
8:46 PM,57.2,51.8,82,29.67,3.0,ENE,10.4,-,0.29,Rain-Thunderstorm,Heavy Thunderstorms and Rain,70,2013-05-28 02:46:00
8:53 PM,55.9,51.1,84,29.67,6.0,Variable,5.8,-,0.29,Rain-Thunderstorm,Light Thunderstorms and Rain,0,2013-05-28 02:53:00
9:45 PM,55.4,53.6,94,29.70,5.0,NE,9.2,-,0.09,Rain,Heavy Rain,50,2013-05-28 03:45:00
9:53 PM,55.9,53.1,90,29.70,6.0,ENE,9.2,-,0.11,Rain,Rain,60,2013-05-28 03:53:00
10:53 PM,55.9,54.0,93,29.69,9.0,Calm,Calm,-,0.08,Rain,Light Rain,0,2013-05-28 04:53:00
11:53 PM,55.9,53.1,90,29.67,10.0,Calm,Calm,-,0.03,,Mostly Cloudy,0,2013-05-28 05:53:00